Location: Unspecified
(0.0000°N, 0.0000°E)
Time: 20:29:10
(UTC+00:00)

OTV 5 (USA 277) - Pass Details

Date: 21 September 2019
Orbit: 295 x 339 km, 54.5° (Epoch: 08 September)

Event Time Altitude Azimuth Distance (km) Brightness Sun altitude
Rises 18:33:18 0° 327° (NNW) 1,959 ? -10.1°
Reaches altitude 10° 18:35:13 10° 326° (NW) 1,142 ? -10.5°
Maximum altitude 18:37:44 84° 241° (WSW) 298 ? -11.2°
Drops below altitude 10° 18:40:16 10° 149° (SSE) 1,152 ? -11.8°
Enters shadow 18:40:28 - 149° (SSE) 1,234 ? -11.8°
